Location: River Bewl
(51.1000°N, 0.4333°E)
Time: 05:22:54
(UTC+00:00)

Daily predictions for brighter satellites

Satellite Brightness Start Highest point End
(mag) Time Altitude Azimuth Time Altitude Azimuth Time Altitude Azimuth
SL-16 R/B 4.4 03:19:10 21° ENE 03:19:10 21° ENE 03:22:03 10° E
Cosmos 2082 Rocket 4.3 03:23:08 22° E 03:23:08 22° E 03:26:16 10° NE
USA 234 4.3 03:24:34 10° ENE 03:28:36 40° NE 03:28:36 40° NE
NOSS 3-1 (C) 4.1 03:52:29 69° ENE 03:52:29 69° ENE 04:00:28 10° SE
COSMOS 2455 3.9 04:07:00 37° SE 04:07:00 37° SE 04:10:30 10° SE
Cosmos 2360 Rocket 3.8 04:09:26 26° NNE 04:10:31 28° NE 04:15:20 10° E
Cosmos 2333 Rocket 3.4 04:11:00 36° NNE 04:11:44 37° NE 04:17:03 10° ESE
ATLAS 3B R/B 4.0 04:14:24 32° N 04:15:43 33° N 04:22:40 10° ENE
ACS3 Solar Sail 4.0 04:12:12 10° N 04:12:40 12° N 04:12:40 12° N
NOSS 3-4 (A) 4.4 04:23:03 35° NNE 04:23:03 35° NNE 04:27:08 10° NE
NOSS 3-4 (C) 4.4 04:23:13 35° NNE 04:23:13 35° NNE 04:27:17 10° NE
Cosmos 2219 Rocket 4.0 04:25:49 20° N 04:27:55 25° NE 04:32:32 10° E
ADEOS Rocket 4.4 04:22:45 10° N 04:27:21 34° NNW 04:27:21 34° NNW
COSMO-SKYMED 1 4.1 04:28:51 10° SE 04:32:30 31° ENE 04:32:40 31° ENE
Cosmos 2322 Rocket 3.3 04:32:25 32° N 04:34:14 40° NE 04:39:33 10° ESE
Cosmos 1937 Rocket 3.7 04:49:25 58° S 04:49:25 58° S 04:53:31 10° SSE
Cosmos 858 Rocket 4.5 04:49:23 75° NNE 04:49:39 78° ENE 04:54:50 10° SSE
USA 59 Rocket 2.0 04:54:18 19° S 04:54:18 19° S 04:55:59 10° SSE
Cosmos 2237 4.3 04:53:25 60° SSW 04:53:25 60° SSW 04:58:22 10° SSE
Cosmos 1833 Rocket 4.3 04:55:09 21° N 04:55:09 21° N 04:57:42 10° NNE
Aureole 1 Rocket 4.4 04:53:29 52° WSW 04:53:29 52° WSW 05:00:14 10° S
Meteor 2-3 Rocket 4.3 04:48:57 10° S 04:54:33 58° E 05:00:07 10° NNE
Cosmos 2058 Rocket 4.1 04:54:41 25° NNE 04:56:53 45° ENE 05:01:07 10° SSE
COSMOS 2406 3.4 04:55:16 15° SSW 04:59:55 68° ESE 05:05:35 10° NNE
NOSS 3-1 (A) 3.9 04:57:15 42° NW 05:00:03 82° NE 05:08:43 10° SE
SKYMED 2 3.7 04:56:24 10° SSE 05:00:15 69° SSE 05:00:15 69° SSE
SL-16 R/B 2.1 05:01:03 55° NNW 05:02:23 90° NE 05:08:04 10° SSE
Cosmos 2082 Rocket 2.0 05:05:01 65° W 05:05:27 68° WNW 05:11:04 10° NNE
CZ-4 R/B 4.2 05:02:18 10° NNE 05:06:55 60° ESE 05:11:28 10° S
ATLAS 5 CENTAUR R/B 3.6 05:10:38 12° NNE 05:10:38 12° NNE 05:11:09 10° NNE
SeaSat 1 3.8 05:04:54 10° NNE 05:07:30 26° N 05:07:30 26° N
BREEZE-M DEB (TANK) 4.2 05:12:02 36° SE 05:12:02 36° SE 05:13:41 10° E
Okean 1 4.1 05:11:24 36° NE 05:12:15 43° ENE 05:15:40 10° SSE
USA 234 3.6 05:07:25 10° ENE 05:13:46 54° N 05:15:57 38° NW
CZ-2C R/B 4.1 05:11:32 10° N 05:13:16 20° N 05:13:16 20° N
Helios 1A Rocket 3.1 05:13:21 10° SSE 05:15:55 49° SE 05:15:55 49° SE
NOAA 12 4.2 05:11:57 10° NNE 05:17:17 77° ESE 05:22:32 10° S
Cosmos 2285 Rocket 4.4 05:17:03 16° NNW 05:22:18 62° ENE 05:28:39 10° SE
BREEZE-M DEB (TANK) 3.0 05:23:26 55° SE 05:23:26 55° SE 05:27:05 10° E
BREEZE-M DEB (TANK) 3.1 05:24:36 36° SSW 05:24:51 36° S 05:29:41 10° ESE
Cosmos 2278 3.6 05:24:16 38° NW 05:26:26 72° WSW 05:32:03 10° SSE
SL-4 R/B 1.7 05:28:33 62° SE 05:28:33 62° SE 05:31:20 10° ESE
FengYun 1-2 T 4.2 05:24:11 10° N 05:29:46 60° WNW 05:35:18 10° SSW
NOSS 8 (A) 4.3 05:33:11 64° E 05:33:11 64° E 05:36:03 10° SE
Cosmos 2026 Rocket 3.8 05:28:25 10° S 05:34:29 86° W 05:40:39 10° N
Cosmos 2221 4.2 05:30:47 10° N 05:34:30 31° ENE 05:38:11 10° SE
Cosmos 1726 Rocket 4.5 05:38:10 30° SW 05:38:10 30° SW 05:40:45 10° SSW
SL-16 R/B 4.5 05:39:19 10° N 05:41:07 11° NNE 05:42:54 10° NE
Cosmos 841 Rocket 3.6 05:40:31 26° WSW 05:43:10 49° WNW 05:48:18 10° NNE
Cosmos 405 Rocket 3.9 05:40:18 10° SSE 05:43:20 37° E 05:46:24 10° NNE
COSMOS 2455 4.1 05:50:11 21° WSW 05:50:11 21° WSW 05:53:58 10° SSW
Cosmos 2360 Rocket 2.1 05:51:12 21° NW 05:55:03 72° WSW 06:00:38 10° SSE
Cosmos 2333 Rocket 2.4 05:53:03 25° NW 05:56:14 51° WSW 06:01:45 10° S
Cosmos 1626 Rocket 3.9 05:52:14 10° S 05:56:37 67° E 06:01:00 10° NNE
Cosmos 1553 Rocket 4.0 05:50:39 10° N 05:57:05 88° W 06:03:30 10° S
SMAP 4.4 05:55:14 10° NNE 05:59:41 42° E 06:04:05 10° S
Cosmos 1892 Rocket 3.9 05:57:13 10° SW 06:01:22 40° WNW 06:05:34 10° N
Cosmos 1092 Rocket 3.9 05:55:12 10° SSW 06:01:25 65° WNW 06:07:38 10° N
Meteor 2-2 Rocket 4.4 05:57:15 10° NNW 06:02:47 54° W 06:08:22 10° S
Cosmos-2242 3.2 06:00:27 22° NNW 06:02:50 45° W 06:06:51 10° SSW
Cosmos 2237 Rocket 4.0 06:00:51 10° NNW 06:05:18 23° NE 06:09:46 10° E
Cosmos 1125 Rocket 3.9 06:01:46 10° NNW 06:07:01 64° ENE 06:12:13 10° SE
COSMO-SKYMED 1 3.2 06:04:07 10° SSW 06:07:47 31° W 06:08:59 26° WNW
ATLAS 3B R/B 3.5 06:01:38 15° NW 06:08:10 56° NE 06:15:38 10° ESE
IRS-1D 3.9 06:07:52 10° N 06:12:26 37° WNW 06:17:04 10° SW
Cosmos 2219 Rocket 2.2 06:07:32 14° NNW 06:12:34 85° WSW 06:18:12 10° SSE
Cosmos 2322 Rocket 2.6 06:14:14 17° NW 06:18:21 45° WSW 06:23:42 10° S
BREEZE-M DEB (TANK) 4.3 05:59:04 10° W 06:19:50 81° S 06:24:33 10° E
Meteor 2-6 Rocket 4.4 06:19:01 10° NNW 06:24:54 63° W 06:30:45 10° S
Cosmos 1812 Rocket 3.5 06:22:28 10° NNW 06:26:48 85° WSW 06:31:08 10° S
IGS 5A 3.3 06:23:16 10° N 06:27:13 60° WNW 06:31:09 10° SSW
Cosmos 2322 4.2 06:22:00 10° NNW 06:27:37 60° NE 06:33:13 10° SE
Cosmos 1484 Rocket 2.7 06:25:11 10° N 06:28:27 42° WNW 06:31:40 10° SW
SJ-12 4.5 06:28:15 10° NNE 06:32:01 56° E 06:35:46 10° S
Cosmos 2266 Rocket 4.3 06:26:29 10° S 06:32:51 76° E 06:39:10 10° NNE
Cosmos 1437 Rocket 2.4 06:29:30 10° NNW 06:32:58 89° E 06:36:26 10° SSE
Cosmos 192 4.3 06:28:12 10° NNW 06:33:07 71° WSW 06:37:59 10° SSE
Cosmos 2058 Rocket 4.2 06:31:52 14° NW 06:34:29 23° W 06:37:55 10° SW
Cosmos 1417 Rocket 4.4 06:28:49 10° NNW 06:34:59 82° W 06:41:08 10° S
Cosmos 1602 Rocket 3.6 06:30:40 10° S 06:35:06 88° ESE 06:39:35 10° N
ATLAS 2AS CENTAUR R/B 3.5 06:28:59 10° SSW 06:35:50 57° SE 06:42:32 10° NE
SL-08 ROCKET BODY 4.3 06:33:45 10° SSW 06:39:33 64° WNW 06:45:23 10° N
Cosmos 1743 2.2 06:37:24 10° SSW 06:40:36 59° WNW 06:43:50 10° N
ARIANE 5 R/B 3.0 06:35:31 10° NNE 06:40:44 68° ESE 06:45:56 10° S
COSMOS 2406 4.0 06:39:45 10° WSW 06:44:41 30° NW 06:49:39 10° NNE
SeaSat 1 4.3 06:43:50 10° N 06:45:32 12° NNW 06:47:07 10° NW
SL-16 R/B 3.7 06:42:55 13° WNW 06:45:41 18° W 06:49:18 10° SW
AQUARIUS 4.5 06:43:40 10° NNE 06:48:05 70° ESE 06:52:28 10° S
COSMOS 2428 2.9 06:44:15 10° NNW 06:49:58 74° ENE 06:55:40 10° SE
Cosmos 2082 Rocket 3.5 06:46:55 11° WNW 06:50:35 19° NW 06:54:36 10° NNE
ATLAS 5 CENTAUR R/B 3.2 06:50:32 10° NNW 06:52:16 13° N 06:54:07 10° NNE
USA 234 3.5 06:49:53 10° E 06:56:23 68° NNE 07:02:54 10° WNW
Cosmos 1814 Rocket 4.3 06:53:33 10° SW 06:58:35 45° WNW 07:03:42 10° NNE
MOS 1 Rocket 3.7 06:53:10 10° NNE 06:58:36 90° W 07:03:54 10° SSW
CBERS-1 4.3 06:55:22 10° N 07:00:12 44° WNW 07:05:01 10° SW
SJ-6F 4.5 06:57:47 10° NNE 07:01:53 85° ESE 07:05:57 10° SSW
Meteor 1-27 Rocket 3.8 06:58:11 10° NNW 07:04:06 85° WSW 07:09:50 10° S
SAR-Lupe-4 3.5 07:01:03 10° N 07:04:34 61° WNW 07:08:04 10° SSW
SL-4 R/B 3.1 07:02:47 10° W 07:05:22 22° SW 07:07:54 10° SSE
CZ-2D R/B 3.0 07:03:42 10° N 07:06:47 45° WNW 07:09:49 10° SW
Cosmos 1570 Rocket 4.4 07:03:05 10° SSW 07:08:22 74° ESE 07:13:42 10° NNE
Cosmos 2151 3.2 07:04:41 10° SSW 07:08:36 44° WNW 07:12:34 10° N
Cosmos 1825 Rocket 3.6 07:04:19 10° S 07:08:45 84° W 07:13:12 10° N
Cosmos 1758 Rocket 4.4 07:07:39 10° SW 07:11:31 29° WNW 07:15:23 10° N
Cosmos 2221 3.3 07:07:55 10° NNW 07:11:31 29° W 07:15:06 10° SSW
CORIOLIS 4.3 07:08:11 10° N 07:13:24 53° WNW 07:18:37 10° SW
SAR-Lupe-1 4.2 07:10:39 10° N 07:14:12 56° WNW 07:17:43 10° SSW
USA 229 4.1 07:08:25 10° NW 07:15:47 82° SW 07:23:54 10° SE
USA 229 DEB 4.1 07:08:31 10° NW 07:15:52 82° SW 07:24:00 10° SE
Meteor 1-20 Rocket 4.2 07:12:17 10° SSW 07:17:53 64° WNW 07:23:24 10° N
